Regional Weather Roundup
Issued by NWS Wakefield, VA

Home | Current Version | Previous Version | Text Only | Print | Product List | Glossary On
Versions: 1 2 3 4 5 6 7 8 9 10 11 12 13 14 15 16 17 18 19 20 21 22 23 24 25 26 27 28 29 30 31 32 33 34 35 36 37 38 39 40 41 42 43 44 45 46 47 48 49 50
000
ASUS41 KAKQ 010910
RWRAKQ

REGIONAL WEATHER ROUNDUP
NATIONAL WEATHER SERVICE WAKEFIELD VA
400 AM EST SUN MAR 01 2015

Note: "fair" indicates few or no clouds below 12,000 feet with no
significant weather and/or obstructions to visibility. * = Denotes
station may not report precipitation (e.g., rain,snow,etc.),
thunder or fog.

VAZ042-051-052>054-056-011000-
NORTHERN VIRGINIA

CITY           SKY/WX    TMP DP  RH WIND       PRES   REMARKS
WASH NATIONAL  CLOUDY    27  13  55 S5        30.68F
DULLES         CLOUDY    22  12  65 CALM      30.65F
FORT BELVOIR   MOCLDY    24  14  66 SE2       30.67F
QUANTICO       CLOUDY    26  13  57 SE6       30.68F
FREDERICKSBRG* FAIR      25  18  74 CALM      30.66F
STAFFORD*      CLOUDY    24  12  61 CALM      30.69F
WARRENTON      CLOUDY    24  19  82 CALM      30.64F
CULPEPER*      MOCLDY    25  14  63 CALM      30.64F
MANASSAS*      CLOUDY    25  18  74 CALM      30.66F
LEESBURG*      CLOUDY    25  14  63 SE5       30.64F
WINCHESTER     CLOUDY    25   9  50 CALM      30.57F
FRONT ROYAL*   CLOUDY    21  12  68 CALM      30.57F
LURAY*         CLOUDY    28  18  64 S5        30.56F
$$

VAZ048-049-060>072-079>083-011000-
CENTRAL AND SOUTH CENTRAL VIRGINIA

CITY           SKY/WX    TMP DP  RH WIND       PRES   REMARKS
RICHMOND       MOCLDY    24  15  68 CALM      30.65F
CHESTERFIELD*  PTSUNNY   25   9  50 N3        30.66F
PETERSBURG*    CLOUDY    26  21  82 CALM      30.66F
HANOVER        MOCLDY    22  15  75 CALM      30.67F
TAPPAHANNOCK*  CLEAR     16  11  78 CALM      30.66F
QUINTON*       FAIR      20  15  82 CALM      30.66F
CHARLOTTSVILLE CLOUDY    23  12  62 S3        30.62F
GORDONSVILLE*  CLOUDY    20  14  77 CALM      30.63S
ORANGE*        CLOUDY    25  18  74 CALM      30.65S
LOUISA*        CLOUDY    25  18  74 CALM      30.62F
BUMPASS*       FAIR      23  17  77 CALM      30.63F
FARMVILLE*     CLOUDY    26  17  68 N3        30.61F
CREWE*         CLOUDY    24  18  76 CALM      30.62F
FORT PICKETT*  CLOUDY    25  17  72 NE3       30.62F
CHASE CITY*    CLOUDY    28  17  62 CALM      30.61F
CLARKSVILLE*   CLOUDY    28  18  64 CALM      30.61F
SOUTH HILL*    CLOUDY    25  17  72 CALM      30.68F
LAWRENCEVILLE* CLOUDY    25  18  76 CALM      30.63F
EMPORIA*       CLOUDY    27  19  74 CALM      30.66F
$$

VAZ088>098-011000-
SOUTHEAST VIRGINIA

CITY           SKY/WX    TMP DP  RH WIND       PRES   REMARKS
NORFOLK        CLOUDY    31  23  72 NE8       30.64F
VIRGINIA BEACH MOCLDY    32  23  69 NE6       30.63F
NORFOLK NAVAL  MOCLDY    32  22  66 NE10      30.66S WCI  24
WEST POINT*    CLEAR     19  15  83 CALM      30.70S
SALUDA*        FAIR      17  14  88 CALM      30.67F
NEWPORT NEWS   MOCLDY    23  18  81 N3        30.66S
LANGLEY AFB    MOCLDY    27  20  76 NE5       30.66S
FORT EUSTIS    MOCLDY    24  23  98 NE3       30.64F
WILLIAMSBURG*  PTCLDY    25  21  86 CALM      30.66F
HR EXEC AP*    CLOUDY    25  21  86 NE3       30.66F
FRANKLIN*      CLOUDY    25  20  81 CALM      30.66S
WAKEFIELD      CLOUDY    25  19  78 CALM      30.66F
$$

VAZ020-022-025-037-045-011000-
WEST CENTRAL AND SOUTHWEST VIRGINIA

CITY           SKY/WX    TMP DP  RH WIND       PRES   REMARKS
STAUNTON*      CLOUDY    25  11  57 S3        30.57F
WAYNESBORO*    CLOUDY    23  11  60 CALM      30.54F
HOT SPRINGS VA CLOUDY    25  15  67 SW9       30.37F
LYNCHBURG      CLOUDY    25  11  55 CALM      30.61F
DANVILLE       CLOUDY    30  15  53 CALM      30.62F
SOUTH BOSTON*  CLOUDY    28  16  61 CALM      30.63F
MARTINSVILLE   CLOUDY    29  20  69 CALM      30.61F
ROANOKE        MOCLDY    27  11  51 CALM      30.59F
BLACKSBURG     CLOUDY    25  13  61 E5        30.53F
DUBLIN*        CLOUDY    28  19  69 CALM      30.51F
MARION*        CLOUDY    28  19  66 NE9       30.46F
HILLSVILLE*    CLOUDY    25  15  65 S8        30.47F
RICHLANDS*     CLOUDY    37  18  46 CALM      30.37F
WISE*          CLOUDY    37  21  52 S7        30.38S
ABINGDON*      CLOUDY    36  22  56 E7        30.41F
$$

MDZ021>025-VAZ099-100-011000-
SOUTHERN MARYLAND AND THE DELMARVA PENINSULA

CITY           SKY/WX    TMP DP  RH WIND       PRES   REMARKS
PATUXENT RIVER CLOUDY    21  15  78 CALM      30.67F
BAY BRIDGE APT   N/A     25  18  74 CALM      30.69F
LEONARDTOWN    CLOUDY    21  18  86 CALM      30.68F
DOVER          CLOUDY    20  15  80 SW3       30.70F
GEORGETOWN     CLOUDY    16  10  77 CALM      30.70F
EASTON         MOCLDY    23  17  77 CALM      30.71F
CAMBRIDGE      CLOUDY    23  18  80 CALM      30.67F
SALISBURY      CLOUDY    18  12  77 CALM      30.69F
OCEAN CITY     PTCLDY    13  10  88 CALM      30.69F
WALLOPS ISLAND CLEAR     15  12  88 N3        30.69F
ACCOMACK*      CLEAR     16  12  86 NE5       30.67F
$$

NCZ012>017-030>032-011000-
NORTH CENTRAL AND EASTERN NORTH CAROLINA

CITY           SKY/WX    TMP DP  RH WIND       PRES   REMARKS
ROANOKE RAPIDS CLOUDY    28  21  74 N5        30.63F
RALEIGH        CLOUDY    31  16  54 NE5       30.60F
ELIZABETH CITY PTCLDY    31  25  78 N9        30.62F
AHOSKIE*       CLOUDY    28  20  72 N6        30.64S
EDENTON*       CLOUDY    29  23  79 N3        30.61F
CURRITUCK*     CLEAR     32  26  77 N7        30.62F
KILL DEVIL HLS CLEAR     36  32  87 N7        30.58F
MANTEO         CLEAR     36  32  87 N10       30.60S
CAPE HATTERAS  PTCLDY    37  36  96 N8        30.56F
TARBORO*       CLOUDY    30  20  64 N5        30.63F
GOLDSBORO      NOT AVBL
WASHINGTON     CLOUDY    31  21  67 N5        30.61F
GREENVILLE     CLOUDY    32  21  64 NE7       30.59F
NEW BERN       PTCLDY    33  24  69 N7        30.59F
WILMINGTON     CLOUDY    36  28  73 NE9       30.54F
$$

VAZ048-011000-
ELSEWHERE

CITY           SKY/WX    TMP DP  RH WIND       PRES   REMARKS
HARRISBURG PA  CLOUDY    20   9  62 SE6       30.65F
BALTIMORE      MOCLDY    20  12  71 CALM      30.67F
ANNAPOLIS      CLOUDY    23  17  78 CALM      30.68F
ANDREWS AFB    CLOUDY    23  12  63 S5        30.68S
PHILADELPHIA   CLOUDY    23  13  65 SW3       30.72S
HENDERSON NC   CLOUDY    28  15  58 CALM      30.60F
GREENSBORO     CLOUDY    30  18  59 E3        30.57F
ROCKY MOUNT    CLOUDY    30  18  60 NE8       30.61F
$$

VAZ100-011000-
MARINE

STATION/POSITION TIME  TEMP    WIND        PRES    WAVE   SWELL
                       AIR SEA DIR/SP/G            HT/PER HT/PER
                 (UTC) (F)     (DEG/KT/KT) (MB)    (FT/S) (FT/S)
BRANDYWINE LGT   0900   25 29  260/  2/  2 1039.8
CAPE MAY NJ      0900   19 31   CALM  /  1 1039.3F
LEWES DE         0900   20 30  330/  2/  2 1039.4F
15NM E FENWICK I 0900   28 33              1038.8F   2/ 8
OCEAN-CITY-INLET 0900   24 32  350/  3/  3 1039.0S
WACHAPREAGUE VA  0900   22 33  350/  3/  5 1038.6F
THOMAS POINT MD  0900   27 31  150/  4/  5 1040.0F
COVE POINT MD    0900   25     210/  2/  2 1038.8F
SOLOMONS ISLAND  0900      32                N/A
BISHOPS HEAD MD  0900   26 31   90/  4/  4 1038.3F
CAMBRIDGE MD     0900   21 32  100/  3/  4 1038.9F
LEWISETTA VA     0900   21 32     CALM     1038.5F
RAPPAHANNOCK LGT 0900           20/ 10/ 11 1039.1F
STINGRAY PT      0900   28      60/  8/ 10   N/A
YORK RVR RNG VA  0900   29      50/ 10/ 11 1037.8R
YORKTOWN VA      0900   26 33   20/  5/  6 1038.2S
DOMINION TERM VA 0900   27      50/  3/  6 1037.9F
KIPTOPEKE VA     0900      37   40/  5/  7   N/A
CHES BAY BRIDGE  0900   31 33   30/ 10/ 12 1037.3F
CAPE HENRY VA    0900   31      50/  9/ 12 1036.2F
CHESAPEAKE LGHT  0800   33      40/ 14/ 15 1038.2F
WILLOUBY STN VA  0900   30      40/ 12/ 13 1038.1F
S CRANEY ISL VA  0900           20/  6/  8 1037.8S
CAPE HENRY BUOY  0900      35                N/A     3/ 9
1ST LANDING BUOY 0900   31      50/ 12/ 14 1037.1F
OFFSHORE WE BUOY 0900      37                N/A     3/11   3/11
64NM E OF VA BCH 0900   49 64   70/ 14/ 17 1035.6F   4/10   3/10
DUCK PIER NC     0900   36 34   20/ 13/ 14 1035.3F
44100 DUCK FRF   0900      37                N/A     4/ 9   2/11
44056 DUCK FRF   0900      34                N/A     4/ 5
OREGON INLET NC  0900   36 38  350/  9/ 13 1035.5F
HATTERAS NC      0900   38 39   30/  9/ 13 1035.1F
CAPE LOOKOUT NC  0800   39      40/ 17/ 19 1034.7F
$$


USA.gov is the U.S. government's official web portal to all federal, state and local government web resources and services.